Location: Marstown
(39.5056°N, 77.0820°W)
Time: 06:48:27
(UTC-04:00)

Tiangong 2 - Visible Passes

Search period start: 18 July 2018 00:00
Search period end: 28 July 2018 00:00
Orbit: 386 x 394 km, 42.8° (Epoch: 18 July)

Date Brightness Start Highest point End Pass type
(mag) Time Alt. Az. Time Alt. Az. Time Alt. Az.
18 Jul 2.0 21:56:43 10° WNW 21:59:49 46° N 22:01:59 17° ENE visible
18 Jul 3.9 23:33:37 10° WNW 23:34:18 15° WNW 23:34:18 15° WNW visible
19 Jul 2.2 20:58:57 10° WNW 21:02:02 43° N 21:05:06 10° ENE visible
19 Jul 1.1 22:35:54 10° WNW 22:39:00 81° NNW 22:39:00 81° NNW visible
20 Jul 1.5 21:38:12 10° WNW 21:41:22 59° NNE 21:43:43 16° E visible
20 Jul 3.7 23:15:14 10° W 23:16:02 16° W 23:16:02 16° W visible
21 Jul 1.1 22:17:24 10° WNW 22:20:32 58° SSW 22:20:45 56° S visible
22 Jul 1.1 21:19:39 10° WNW 21:22:51 89° N 21:25:29 14° ESE visible
22 Jul 3.8 22:57:07 10° W 22:57:48 13° WSW 22:57:48 13° WSW visible
23 Jul 2.2 21:59:00 10° W 22:01:52 31° SSW 22:02:34 28° S visible
24 Jul 1.5 21:01:07 10° WNW 21:04:14 53° SSW 21:07:21 10° SE visible
25 Jul 3.3 21:40:56 10° WSW 21:43:06 17° SW 21:44:33 13° S visible
